| time (UTC) | temp C | wind direction | speed KPH | gust KPH | rain 1hr cm | rain 24hr cm | rain mn cm | humidity % | barometer mb |
| 20260507012058 | 5 | 270 | 22.5 | 49.9 | 0.00 | 0.00 | 0.00 | 93 | |
| 20260507001958 | 5 | 250 | 29.0 | 46.7 | 0.00 | 0.00 | 0.00 | 99 | |
| 20260506231958 | 5 | 240 | 29.0 | 57.9 | 0.00 | 0.00 | 0.00 | 99 | |
| 20260506222214 | 6 | 280 | 46.7 | 0.0 | 0.00 | 0.00 | 0.00 | 86 | |
| 20260506211958 | 5 | 330 | 25.7 | 0.0 | 0.00 | 0.00 | 0.00 | 99 | |
| 20260506202033 | 6 | 320 | 22.5 | 0.0 | 0.00 | 0.00 | 0.00 | 86 | |
| 20260506192149 | 7 | 280 | 22.5 | 0.0 | 0.00 | 0.00 | 0.00 | 75 | |
| 20260506182047 | 7 | 300 | 38.6 | 0.0 | 0.00 | 0.00 | 0.00 | 81 | |
| 20260506172013 | 7 | 260 | 3.2 | 0.0 | 0.00 | 0.00 | 0.00 | 75 | |
| 20260506162231 | 7 | 240 | 11.3 | 0.0 | 0.00 | 0.00 | 0.00 | 81 | |
| 20260506152046 | 8 | 270 | 11.3 | 0.0 | 0.00 | 0.00 | 0.00 | 81 | |
| 20260506142026 | 7 | 310 | 11.3 | 32.2 | 0.00 | 0.00 | 0.00 | 93 | |
| 20260506132026 | 7 | 260 | 19.3 | 41.8 | 0.00 | 0.00 | 0.00 | 93 | |
| 20260506122026 | 6 | 270 | 14.5 | 38.6 | 0.00 | 0.00 | 0.00 | 99 | |
| 20260506111959 | 5 | 270 | 19.3 | 41.8 | 0.00 | 0.00 | 0.00 | 99 | |
| 20260506102200 | 5 | 250 | 32.2 | 53.1 | 0.00 | 0.00 | 0.00 | 99 | |
| 20260506081958 | 5 | 260 | 25.7 | 57.9 | 0.00 | 0.00 | 0.00 | 99 | |
| 20260506071959 | 3 | 240 | 35.4 | 69.2 | 0.00 | 0.00 | 0.00 | 99 | |
| 20260506062000 | 3 | 250 | 32.2 | 72.4 | 0.00 | 0.00 | 0.00 | 99 | |
| 20260506042158 | 5 | 250 | 35.4 | 83.7 | 0.00 | 0.00 | 0.00 | 99 | |
| 20260506032001 | 5 | 240 | 32.2 | 61.2 | 0.00 | 0.00 | 0.00 | 99 | |
| 20260506021959 | 6 | 250 | 41.8 | 0.0 | 0.00 | 0.00 | 0.00 | 81 |